Weather History for KVQQ - January, 2013

Change the Weather History Date:

Friday, January 18, 2013

  Actual Average (KJAX) Record (KJAX)
Temperature  
Mean Temperature 48 °F 53 °F  
Max Temperature 57 °F 65 °F 83 °F (1937)
Min Temperature 39 °F 41 °F 21 °F (1977)
Degree Days  
Heating Degree Days 17 12  
Month to date heating degree days 229  
Since 1 July heating degree days 725  
Cooling Degree Days 0 0  
Month to date cooling degree days 0  
Year to date cooling degree days 0  
Moisture  
Dew Point 36 °F    
Average Humidity 72    
Maximum Humidity 81    
Minimum Humidity 55    
Precipitation  
Precipitation 0.00 in 0.11 in 0.62 in (1941)
Month to date precipitation 1.80  
Year to date precipitation 1.80  
Snow  
Snow 0.00 in 0.00 in T in (1977)
Month to date snowfall 0.0  
Since 1 July snowfall T  
Snow Depth -    
Sea Level Pressure  
Sea Level Pressure 30.30 in    
Wind  
Wind Speed 10 mph (NNW)    
Max Wind Speed 17 mph    
Max Gust Speed 28 mph    
Visibility 10 miles    
Events      
T = Trace of Precipitation, MM = Missing Value Source: NWS Daily Summary

Daily Weather History Graph

Daily Weather History Graph

Search for Another Location

Airport or City:

Trip Planner

Search our weather history database for the weather conditions in past years. The results will help you decide how hot, cold, wet, or windy it might be!

Date:

Astronomy

Jan. 18, 2013 Rise Set
Actual Time 7:23 AM EST 5:52 PM EST
Civil Twilight 6:58 AM EST 6:18 PM EST
Nautical Twilight 6:28 AM EST 6:47 PM EST
Astronomical Twilight 6:00 AM EST 7:16 PM EST
Moon 11:37 AM EST (1/18) 12:08 AM EST (1/18)
Length of Visible Light 11h 19m
Length of Day
10h 28m
Waxing Crescent, 47% of the Moon is Illuminated
Jan 18
Waxing Crescent
Jan 18
First Quarter
Jan 26
Full
Feb 3
Last Quarter
Feb 10
New

Hourly Weather History & Observations

Time (EST) Temp. Windchill Dew Point Humidity Pressure Visibility Wind Dir Wind Speed Gust Speed Precip Events Conditions
12:15 AM 41.0 °F 33.9 °F 32.0 °F 70% 30.18 in 10.0 mi NW 12.7 mph 20.7 mph N/A   Overcast
12:35 AM 41.0 °F 34.7 °F 32.0 °F 70% 30.18 in 10.0 mi NW 10.4 mph - N/A   Mostly Cloudy
12:55 AM 41.0 °F 35.2 °F 32.0 °F 70% 30.19 in 10.0 mi NW 9.2 mph - N/A   Mostly Cloudy
1:15 AM 39.2 °F 33.0 °F 32.0 °F 75% 30.20 in 10.0 mi NW 9.2 mph - N/A   Scattered Clouds
1:35 AM 41.0 °F 35.2 °F 32.0 °F 70% 30.21 in 10.0 mi NW 9.2 mph - N/A   Scattered Clouds
1:55 AM 41.0 °F 35.2 °F 32.0 °F 70% 30.22 in 10.0 mi NW 9.2 mph - N/A   Overcast
2:15 AM 41.0 °F 35.2 °F 32.0 °F 70% 30.22 in 10.0 mi NW 9.2 mph - N/A   Overcast
2:35 AM 41.0 °F 35.2 °F 32.0 °F 70% 30.22 in 10.0 mi NW 9.2 mph - N/A   Overcast
2:55 AM 41.0 °F 35.2 °F 33.8 °F 76% 30.21 in 10.0 mi NW 9.2 mph - N/A   Overcast
3:15 AM 41.0 °F 35.8 °F 33.8 °F 76% 30.22 in 10.0 mi NW 8.1 mph - N/A   Mostly Cloudy
3:55 AM 41.0 °F 35.8 °F 33.8 °F 76% 30.22 in 10.0 mi NW 8.1 mph - N/A   Mostly Cloudy
4:15 AM 41.0 °F 35.8 °F 33.8 °F 76% 30.22 in 10.0 mi NNW 8.1 mph - N/A   Overcast
4:35 AM 41.0 °F 35.2 °F 35.6 °F 81% 30.23 in 10.0 mi NNW 9.2 mph - N/A   Overcast
4:55 AM 41.0 °F 35.8 °F 35.6 °F 81% 30.23 in 10.0 mi NNW 8.1 mph - N/A   Overcast
5:15 AM 41.0 °F 35.2 °F 35.6 °F 81% 30.24 in 10.0 mi North 9.2 mph - N/A   Overcast
5:35 AM 41.0 °F 34.7 °F 35.6 °F 81% 30.25 in 10.0 mi NNW 10.4 mph - N/A   Overcast
5:55 AM 42.8 °F 37.0 °F 35.6 °F 76% 30.26 in 10.0 mi North 10.4 mph - N/A   Overcast
6:15 AM 42.8 °F 37.5 °F 37.4 °F 81% 30.27 in 10.0 mi North 9.2 mph - N/A   Overcast
6:35 AM 42.8 °F 38.0 °F 37.4 °F 81% 30.28 in 10.0 mi North 8.1 mph - N/A   Overcast
6:50 AM 42.8 °F 36.6 °F 37.4 °F 81% 30.28 in 10.0 mi North 11.5 mph - N/A   Overcast
7:50 AM 44.6 °F 38.8 °F 37.4 °F 76% 30.31 in 10.0 mi North 11.5 mph - N/A   Mostly Cloudy
9:50 AM 48.2 °F - 41.0 °F 76% 30.37 in 10.0 mi North 13.8 mph - N/A   Mostly Cloudy
10:50 AM 51.8 °F - 41.0 °F 67% 30.39 in 10.0 mi NNE 11.5 mph 19.6 mph N/A   Mostly Cloudy
11:50 AM 55.4 °F - 41.0 °F 58% 30.38 in 10.0 mi NNE 11.5 mph 27.6 mph N/A   Mostly Cloudy
12:50 PM 57.2 °F - 41.0 °F 55% 30.36 in 10.0 mi NNE 17.3 mph 24.2 mph N/A   Scattered Clouds
2:50 PM 57.2 °F - 41.0 °F 55% 30.36 in 10.0 mi NNE 15.0 mph 21.9 mph N/A   Partly Cloudy
3:50 PM 55.4 °F - 41.0 °F 58% 30.37 in 10.0 mi NNE 15.0 mph 21.9 mph N/A   Clear
6:50 PM 50.0 °F - 39.2 °F 66% 30.41 in 10.0 mi North 10.4 mph - N/A   Clear
7:50 PM 48.2 °F - 37.4 °F 66% 30.41 in 10.0 mi North 9.2 mph - N/A   Clear
8:15 PM 48.2 °F - 37.4 °F 66% 30.41 in 10.0 mi North 9.2 mph - N/A   Clear
8:55 PM 46.4 °F 41.5 °F 37.4 °F 71% 30.41 in 10.0 mi North 10.4 mph - N/A   Clear
9:15 PM 46.4 °F 41.9 °F 37.4 °F 71% 30.42 in 10.0 mi North 9.2 mph - N/A   Partly Cloudy
9:55 PM 46.4 °F 41.9 °F 37.4 °F 71% 30.41 in 10.0 mi North 9.2 mph - N/A   Partly Cloudy
10:15 PM 46.4 °F 41.9 °F 37.4 °F 71% 30.41 in 10.0 mi North 9.2 mph - N/A   Scattered Clouds
10:35 PM 46.4 °F 41.9 °F 37.4 °F 71% 30.40 in 10.0 mi North 9.2 mph - N/A   Partly Cloudy
10:55 PM 46.4 °F 41.9 °F 37.4 °F 71% 30.39 in 10.0 mi North 9.2 mph - N/A   Clear
11:15 PM 46.4 °F 42.4 °F 37.4 °F 71% 30.39 in 10.0 mi North 8.1 mph - N/A   Clear
11:35 PM 46.4 °F 42.9 °F 37.4 °F 71% 30.38 in 10.0 mi North 6.9 mph - N/A   Clear
11:55 PM 46.4 °F 43.5 °F 37.4 °F 71% 30.38 in 10.0 mi NNW 5.8 mph - N/A   Clear